Weather Roundup
Issued by NWS

Home | Current Version | Previous Version | Graphics & Text | Print | Product List | Glossary Off
Versions: 1 2 3 4 5 6 7 8 9 10 11 12 13 14 15 16 17 18 19 20 21 22 23 24 25 26 27 28 29 30 31 32 33 34 35 36 37 38 39 40 41 42 43 44 45 46 47 48 49 50

134
NZUS93 KARX 221510
HRRWXR

CURRENT HOURLY OBSERVATIONS ACROSS
MUCH OF THE UPPER MISSISSIPPI VALLEY
NATIONAL WEATHER SERVICE LA CROSSE WI
900 AM CST SUN JAN 22 2017


...SOUTHEAST MINNESOTA...


CITY           SKY/WX    TMP DP  RH WIND       PRES   REMARKS
ROCHESTER      FOG       33  33 100 NW8       29.65R VSB<1/4 WCI  26
ROCHESTER/MAYO CLOUDY    34  35 100 W7        29.66R VSB 1/4 WCI  28
WINONA         FOG       34  34 100 CALM      29.67R VSB 1/2
AUSTIN         FOG       34  32  93 NW3       29.66R VSB 1
ALBERT LEA     CLOUDY    34  34 100 CALM      29.67R FOG
DODGE CENTER   FOG       34  34 100 CALM      29.66R VSB<1/4
PRESTON        FOG       32  32  99 NW3       29.65R VSB<1/4
OWATONNA       FOG       34  34 100 NW3       29.68R VSB 1/4
FARIBAULT      NOT AVBL
$$

...ELSEWHERE IN MINNESOTA...


CITY           SKY/WX    TMP DP  RH WIND       PRES   REMARKS
MINNEAPOLIS    CLOUDY    35  33  92 NW5       29.69R WCI  31
INTNL FALLS    FOG       34  33  96 CALM      29.67R VSB 1/4
DULUTH         FOG       34  34 100 NW5       29.64R VSB 1/2 WCI  30
RED WING       FOG       36  34  93 W5        29.67R VSB<1/4 WCI  32
REDWOOD FALLS  CLOUDY    34  33  96 W9        29.72R FOG     WCI  27
MANKATO        FOG       34  33  96 NW7       29.70R VSB 1/4 WCI  28
WORTHINGTON    MIX PCPN  33  33 100 NW9       29.72R VSB 1/2 WCI  25
FAIRMONT       CLOUDY    34  33  96 NW12      29.70S FOG     WCI  25
$$

...SOUTHWEST WISCONSIN...


CITY           SKY/WX    TMP DP  RH WIND       PRES   REMARKS
LA CROSSE      FOG       38  35  89 CALM      29.66R VSB 1/4
PRAIRIE DU CHI FOG       34  33  96 CALM      29.65R VSB 3/4
BOSCOBEL       CLOUDY    37  36  96 CALM      29.66R FOG
LONE ROCK      CLOUDY    37  36  96 CALM      29.65R FOG
PLATTEVILLE    CLOUDY    35  35 100 N3        29.65R
FORT MC COY    FOG       35  35 100 CALM      29.66R VSB 1/4
CAMP DOUGLAS   FOG       36  36 100 CALM      29.64R VSB 1/4
MAUSTON-NEW LI FOG       36  36 100 CALM      29.64R VSB 1/2
VIROQUA        CLOUDY    35  35 100 W5        29.63R WCI  30
WIS DELLS      FOG       36  36  99 CALM      29.63R VSB 1
$$

...ELSEWHERE IN WISCONSIN...


CITY           SKY/WX    TMP DP  RH WIND       PRES   REMARKS
MILWAUKEE      CLOUDY    42  39  89 NW3       29.64R FOG
MADISON        CLOUDY    38  36  92 CALM      29.65R FOG
GREEN BAY      FOG       37  37 100 S5        29.63R VSB 1/4 WCI  33
EAU CLAIRE     CLOUDY    34  34 100 W5        29.64R FOG     WCI  30
BLACK RVR FLS  FOG       36  36 100 W5        29.64R VSB 1/4 WCI  32
MEDFORD        FOG       33  33 100 CALM      29.61R VSB<1/4
WAUSAU         CLOUDY    34  34 100 NW3       29.59R FOG
WIS RAPIDS     CLOUDY    36  36 100 NW3       29.63R FOG
MARSHFIELD     FOG       34  33  96 NW5       29.60R VSB 1/4 WCI  30
RICE LAKE      FOG       34  34 100 NW3       29.66R VSB 1/2
$$

...NORTHEAST IOWA...


CITY           SKY/WX    TMP DP  RH WIND       PRES   REMARKS
WATERLOO       CLOUDY    33  30  88 N7        29.66R WCI  27
DUBUQUE        CLOUDY    33  32  96 CALM      29.64R FOG
DECORAH        CLOUDY    34  34 100 NW5       29.64R FOG     WCI  30
MASON CITY     FOG       33  32  96 NW9       29.68R VSB 1/2 WCI  25
CHARLES CITY   CLOUDY    34  34 100 NW6       29.66R FOG     WCI  29
OELWEIN        CLOUDY    32  32 100 NW5       29.65S FOG     WCI  27
$$

...ELSEWHERE IN IOWA...


CITY           SKY/WX    TMP DP  RH WIND       PRES   REMARKS
DES MOINES     CLOUDY    34  32  92 NW12      29.70R WCI  25
IOWA CITY      CLOUDY    34  33  96 W5        29.69R FOG     WCI  30
FORT DODGE     CLOUDY    34  30  86 CALM      29.70R
MARSHALLTOWN   CLOUDY    33  33 100 W7        29.66R FOG     WCI  27
CEDAR RAPIDS   CLOUDY    32  32 100 NW9       29.65R FOG     WCI  24
$$

...NORTHERN ILLINOIS...


CITY           SKY/WX    TMP DP  RH WIND       PRES   REMARKS
CHICAGO-OHARE  CLOUDY    41  38  89 N5        29.63R
CHICAGO-MIDWAY FOG       42  41  96 NE3       29.64R VSB 1
MOLINE         CLOUDY    34  32  92 CALM      29.65R FOG
ROCKFORD       FOG       36  35  96 NE5       29.67R VSB 1/2 WCI  32
PEORIA         CLOUDY    39  39 100 N7        29.62F FOG     WCI  34
$$

NOTE: "FAIR" INDICATES FEW OR NO CLOUDS BELOW 12,000 FEET WITH NO
SIGNIFICANT WEATHER AND/OR OBSTRUCTIONS TO VISIBILITY. WIND
SPEEDS ARE IN MILES-PER-HOUR.




USA.gov is the U.S. government's official web portal to all federal, state and local government web resources and services.